Concordia, KS

1:21 AM CST on November 17, 2019 (GMT -0600)
Blosser Municipal

Weather History for KCNK - September, 2019

Change the Weather History Date:

Thursday, September 19, 2019

  Actual Average Record
Temperature  
Mean Temperature 85 °F 67 °F  
Max Temperature 94 °F 79 °F 98 °F (1931)
Min Temperature 75 °F 55 °F 33 °F (1991)
Degree Days  
Heating Degree Days 0 3  
Month to date heating degree days 0 25  
Since 1 July heating degree days 0 28  
Cooling Degree Days 20 4  
Month to date cooling degree days 272 127  
Year to date cooling degree days 1549 1293  
Growing Degree Days 34 (Base 50)    
Moisture  
Dew Point 68 °F    
Average Humidity 60    
Maximum Humidity 79    
Minimum Humidity 41    
Precipitation  
Precipitation T in 0.11 in 1.52 in (1967)
Month to date precipitation 0.02 1.87  
Year to date precipitation 28.86 22.97  
Snow  
Snow 0.00 in 0.00 in 0.00 in ()
Month to date snowfall 0.0 0.0  
Year to date snowfall 32.3 13.7  
Since 1 July snowfall 0.0 0.0  
Snow Depth 0.00 in    
Sea Level Pressure  
Sea Level Pressure 29.89 in    
Wind  
Wind Speed 13 mph (South)    
Max Wind Speed 22 mph    
Max Gust Speed 30 mph    
Visibility 10 miles    
Events      
T = Trace of Precipitation, MM = Missing Value Source: NWS Daily Summary

Daily Weather History Graph

Daily Weather History Graph

Search for Another Location

Airport or City:

Astronomy

Sep. 19, 2019 Rise Set
Actual Time 7:15 AM CDT 7:32 PM CDT
Civil Twilight 6:48 AM CDT 7:59 PM CDT
Nautical Twilight 6:16 AM CDT 8:31 PM CDT
Astronomical Twilight 5:44 AM CDT 9:03 PM CDT
Moon 10:44 PM CDT (9/19) 12:18 PM CDT (9/19)
Length of Visible Light 13h 11m
Length of Day
12h 17m
Waning Gibbous, 74% of the Moon is Illuminated
Sep 19
Waning Gibbous
Sep 21
Last Quarter
Sep 28
New
Oct 5
First Quarter
Oct 13
Full

Hourly Weather History & Observations

Time (CDT) Temp. Heat Index Dew Point Humidity Pressure Visibility Wind Dir Wind Speed Gust Speed Precip Events Conditions
12:55 AM 78.1 °F - 66.9 °F 68% 29.88 in 10.0 mi South 17.3 mph - N/A   Clear
1:55 AM 78.1 °F - 66.9 °F 68% 29.88 in 10.0 mi South 16.1 mph - N/A   Clear
2:55 AM 75.9 °F - 68.0 °F 76% 29.88 in 10.0 mi South 12.7 mph - N/A   Clear
3:55 AM 75.0 °F - 66.9 °F 76% 29.88 in 10.0 mi South 13.8 mph - N/A   Clear
4:55 AM 75.9 °F - 66.9 °F 74% 29.89 in 10.0 mi South 12.7 mph - N/A   Overcast
5:55 AM 75.9 °F - 68.0 °F 76% 29.88 in 10.0 mi South 16.1 mph - N/A   Overcast
6:55 AM 75.0 °F - 68.0 °F 79% 29.90 in 10.0 mi South 12.7 mph - N/A   Mostly Cloudy
7:55 AM 75.9 °F - 68.0 °F 76% 29.91 in 10.0 mi SSW 11.5 mph - N/A   Mostly Cloudy
8:55 AM 80.1 °F 82.9 °F 69.1 °F 69% 29.91 in 10.0 mi SSW 9.2 mph - N/A   Clear
9:55 AM 84.0 °F 87.8 °F 69.1 °F 61% 29.93 in 10.0 mi South 5.8 mph - N/A   Clear
10:55 AM 87.1 °F 91.3 °F 69.1 °F 55% 29.93 in 10.0 mi South 13.8 mph - N/A   Clear
11:55 AM 87.1 °F 92.0 °F 70.0 °F 57% 29.95 in 10.0 mi East 8.1 mph - N/A   Partly Cloudy
12:55 PM 90.0 °F 95.4 °F 70.0 °F 52% 29.92 in 10.0 mi South 13.8 mph 21.9 mph N/A   Clear
1:55 PM 91.9 °F 96.9 °F 69.1 °F 47% 29.89 in 10.0 mi SSE 16.1 mph 25.3 mph N/A   Clear
2:55 PM 93.0 °F 96.4 °F 66.9 °F 42% 29.87 in 10.0 mi SSE 20.7 mph 26.5 mph 0.00 in   Clear
3:55 PM 93.9 °F 97.5 °F 66.9 °F 41% 29.86 in 10.0 mi South 17.3 mph 26.5 mph N/A   Clear
4:55 PM 91.0 °F 93.8 °F 66.0 °F 44% 29.85 in 10.0 mi SSE 11.5 mph - N/A   Partly Cloudy
6:55 PM 88.0 °F 89.6 °F 64.9 °F 46% 29.84 in 8.0 mi SSE 13.8 mph - N/A   Clear
7:55 PM 82.0 °F 84.5 °F 66.9 °F 60% 29.87 in 9.0 mi SSE 9.2 mph - N/A   Clear
8:55 PM 79.0 °F - 68.0 °F 69% 29.89 in 10.0 mi SSE 8.1 mph - N/A   Clear
9:55 PM 77.0 °F - 68.0 °F 74% 29.90 in 10.0 mi SSE 8.1 mph - N/A   Clear
10:55 PM 79.0 °F - 69.1 °F 72% 29.90 in 10.0 mi South 10.4 mph - N/A   Clear
11:55 PM 78.1 °F - 69.1 °F 74% 29.90 in 10.0 mi SSE 9.2 mph - N/A   Clear